Wind_Speed
47 54 51 50 49 51 43 41 43 40 24 39 43 33 30 29 28 25 25 27 27 27 24 17 15 17 24 19 18 18 20 22 19 19 22 19 18 18 23 21 20 24 27 26
50 50 41 44 52 55 44 45 48 34 34 42 41 36 30 27 27 23 25 27 27 25 21 14 13 19 18 14 14 12 16 14 12 18 21 19 17 14 20 14 23 34 30 26
45 40 40 42 50 52 42 39 38 35 35 40 43 36 34 23 28 23 23 24 27 24 18 12 14 16 14 11 11 10 10 9 10 14 17 17 14 10 8 11 13 23 25 22
44 41 46 37 45 46 45 36 35 36 39 44 39 37 30 22 24 22 23 26 27 22 15 10 13 13 13 10 10 9 9 6 5 12 18 18 14 12 10 13 11 11 15 18
42 38 38 41 38 36 41 37 38 37 41 41 37 40 25 24 23 21 25 25 23 20 14 10 13 13 13 11 10 11 11 9 9 8 17 21 16 16 10 12 6 9 14 17
36 40 40 33 28 40 29 35 35 36 38 41 37 35 31 21 22 21 22 25 23 17 14 12 14 14 11 9 8 9 11 8 12 8 10 18 19 17 11 12 11 12 11 12
32 35 32 33 29 32 31 28 29 31 36 38 32 30 33 22 24 20 26 21 22 17 15 13 14 14 10 9 6 8 9 8 7 5 7 5 10 13 10 10 13 14 14 11
29 38 35 30 33 29 31 32 30 24 18 21 21 28 26 24 25 25 26 24 22 16 17 16 14 14 10 8 7 7 8 8 5 5 1 4 7 9 8 6 7 9 11 15
28 27 34 36 31 35 35 33 27 33 23 21 22 15 16 16 22 23 26 26 24 20 20 19 16 16 13 9 8 8 7 7 8 5 6 6 6 6 8 9 10 11 11 10
31 28 28 28 39 40 38 30 37 36 38 31 23 22 17 20 19 22 22 27 26 23 20 21 19 18 14 11 9 9 10 11 9 8 7 5 5 6 7 7 8 10 9 10
30 29 28 29 26 28 30 36 36 34 36 30 18 14 13 20 19 19 28 29 27 24 24 23 22 20 17 13 10 10 11 12 14 13 12 11 10 7 7 8 9 10 10 11
24 25 29 26 26 27 30 31 32 36 36 27 29 31 18 23 11 21 19 24 24 25 25 26 24 24 20 17 15 11 14 13 12 13 13 14 14 13 12 13 13 13 15 17
24 25 24 25 27 28 28 30 32 34 35 38 32 23 20 28 18 25 26 26 23 26 27 28 27 24 20 21 19 14 12 14 14 13 11 11 14 15 17 17 17 16 16 18
26 25 25 23 21 25 30 33 35 36 37 35 38 31 28 17 22 24 24 23 28 28 28 28 29 28 26 24 18 18 17 17 18 19 19 19 20 18 18 18 16 17 19 17
27 26 28 26 28 33 31 31 31 34 35 38 34 32 28 31 33 26 27 29 27 30 31 31 31 31 30 28 25 23 22 23 24 24 22 23 23 23 24 23 21 23 24 21
28 26 27 27 22 26 31 31 32 33 35 37 39 39 29 32 31 32 37 36 35 34 35 35 34 33 32 32 30 28 25 23 23 23 23 23 24 26 27 29 31 31 30 29
28 25 25 23 22 23 29 27 29 32 35 38 41 39 33 31 30 34 28 28 32 39 37 40 39 36 36 35 36 34 29 27 24 23 24 24 25 26 28 29 28 27 28 31
22 22 25 25 24 25 19 25 25 28 29 34 36 36 34 28 29 29 28 36 36 37 38 41 47 45 40 42 41 37 35 33 27 27 28 28 28 27 27 29 28 28 27 29
20 22 24 25 24 25 20 21 20 22 28 32 36 30 33 29 36 36 38 38 36 41 41 42 42 45 43 47 42 39 40 36 33 30 29 28 28 30 32 31 31 30 31 32
21 20 21 22 19 22 21 23 18 10 19 22 33 40 39 32 35 29 42 40 38 37 37 40 44 43 49 49 49 39 40 36 34 35 34 35 34 31 31 31 33 34 33 35
17 18 19 19 22 21 23 28 29 19 20 22 35 34 34 39 41 38 37 34 34 38 37 34 36 42 47 50 51 53 49 44 46 45 41 38 37 35 32 29 30 33 35 34
17 13 12 18 21 21 27 23 28 24 15 14 26 31 28 32 41 35 31 28 27 33 32 31 36 38 45 50 56 58 56 53 53 44 36 37 41 42 38 35 33 36 37 38
19 14 10 9 15 16 24 27 24 27 16 17 4 8 30 12 25 29 30 28 29 27 31 31 35 40 42 49 52 52 53 46 40 41 46 46 45 44 45 44 44 38 42 41
22 18 10 9 18 15 18 24 22 18 22 17 11 12 13 19 22 27 29 32 35 37 35 32 31 39 40 43 45 44 43 40 36 41 45 50 41 44 47 57 61 51 50 49
23 22 22 21 17 13 10 24 22 28 25 26 26 21 15 14 19 25 25 27 30 32 35 36 34 36 40 50 51 50 47 48 47 46 47 48 46 50 57 60 53 52 58 58
25 22 19 19 20 21 19 17 17 18 19 16 14 18 22 22 20 21 19 24 26 27 31 32 37 37 38 45 48 53 51 54 54 52 53 55 54 58 59 59 59 59 58 59
Wind_Direction
251 250 249 257 256 248 243 240 243 238 234 245 257 258 259 267 275 283 283 288 294 299 301 286 287 306 299 283 283 288 296 295 283 253 236 237 247 249 230 244 234 229 226 243
249 250 252 253 247 244 239 237 242 237 234 253 255 260 257 260 270 275 282 286 289 297 298 280 294 303 285 278 282 296 314 299 261 240 232 239 245 228 237 244 232 235 236 232
247 251 247 246 242 241 236 233 238 236 234 243 257 257 263 258 266 274 276 277 281 294 293 281 293 293 274 275 283 301 326 321 254 229 227 244 237 220 224 231 229 227 215 190
242 237 250 246 241 236 232 233 233 234 233 240 250 259 256 254 268 280 273 270 273 291 289 289 287 290 270 269 283 300 314 336 317 243 236 238 237 203 220 224 215 194 195 190
241 235 243 246 245 227 226 230 229 231 235 242 246 256 258 259 269 271 277 278 281 286 282 286 284 282 273 270 281 290 297 308 311 319 250 231 222 226 233 188 210 230 211 202
237 241 242 240 249 227 218 226 231 233 239 243 248 253 259 250 273 270 270 269 274 270 265 275 272 275 270 271 277 288 281 300 293 329 307 227 232 220 227 238 233 231 213 229
241 236 244 237 230 240 214 229 235 237 239 246 250 251 259 250 249 260 266 271 268 254 251 263 270 272 263 265 272 280 278 275 285 318 32 168 230 201 241 241 238 232 235 214
254 234 228 233 238 239 228 224 225 239 244 257 262 250 256 239 246 257 265 267 264 261 249 251 260 266 273 270 265 268 270 268 278 281 250 117 135 152 156 156 163 171 174 181
235 237 241 224 225 230 233 228 227 227 216 241 213 238 259 238 236 252 260 268 261 257 243 249 256 258 273 274 281 262 254 257 264 261 233 215 197 204 203 196 190 195 196 202
235 238 241 232 226 222 225 235 233 231 236 243 252 263 267 251 240 252 258 259 261 251 246 244 252 249 256 260 275 267 253 250 259 262 250 242 228 212 210 215 213 211 211 215
234 236 241 236 233 231 232 229 230 235 241 242 234 221 233 225 243 236 252 261 265 249 254 240 244 247 252 257 263 266 261 253 250 248 248 256 252 251 251 246 244 246 245 244
244 235 236 239 236 224 225 226 231 233 233 245 250 231 245 249 238 249 262 267 263 255 250 245 245 240 250 248 255 254 273 267 259 250 245 248 247 251 254 249 241 243 251 259
243 246 244 239 237 240 233 230 231 234 240 241 233 245 249 243 228 241 256 264 261 254 245 245 244 241 240 243 250 252 251 257 268 278 279 266 261 260 254 247 242 260 270 269
247 250 247 242 220 237 235 234 236 234 235 239 243 244 228 247 231 244 245 250 252 255 243 243 247 241 234 238 246 259 260 262 272 281 290 294 286 271 260 255 260 261 268 279
251 254 255 249 234 241 245 242 242 243 246 246 244 249 253 244 232 219 234 247 247 248 242 239 243 249 245 245 247 254 256 265 264 267 283 294 293 284 277 273 265 265 269 268
256 259 260 259 249 242 248 248 249 246 248 251 250 247 242 243 242 239 235 240 240 239 243 242 242 244 251 254 256 255 250 254 259 266 270 278 283 284 279 279 274 270 266 268
259 261 261 257 249 248 250 247 249 247 247 248 247 250 242 243 252 248 241 243 234 238 238 235 237 242 244 251 259 256 247 245 250 257 266 271 272 280 279 275 272 268 264 263
260 258 259 253 237 249 258 256 248 249 246 245 248 249 244 236 246 256 237 231 233 239 241 238 238 233 238 246 245 242 249 249 252 262 264 264 259 272 273 271 264 262 258 259
253 251 251 249 241 238 254 248 230 243 242 242 238 241 247 243 238 241 243 234 229 237 236 241 244 243 244 248 228 233 242 245 253 253 256 258 262 273 273 271 264 263 263 260
253 257 252 255 251 243 251 231 222 241 211 242 247 241 232 236 242 242 245 242 235 237 243 242 244 244 238 245 250 228 237 243 251 252 250 254 265 264 266 264 263 264 263 262
239 238 246 254 243 230 232 231 225 240 222 237 234 244 249 237 241 248 251 252 245 243 246 246 243 245 245 243 243 247 228 237 237 243 233 251 257 262 264 263 267 269 267 265
214 220 256 234 228 236 234 236 230 223 225 233 221 230 233 243 240 244 251 250 245 241 246 246 241 242 245 245 248 247 233 245 243 244 252 245 250 255 262 264 263 263 264 266
209 213 226 221 204 227 230 230 227 229 234 221 305 190 180 211 204 231 246 250 253 258 249 248 241 244 249 246 249 250 236 236 254 242 251 233 240 251 261 262 260 266 271 269
210 206 201 225 223 228 221 225 244 244 237 225 240 259 224 239 248 241 245 254 259 259 258 256 250 242 245 240 241 250 253 253 243 245 252 262 247 253 254 260 261 260 264 264
215 218 220 230 215 228 204 214 232 234 241 242 247 255 260 270 249 241 246 252 256 257 253 251 256 252 247 230 237 240 243 247 242 247 249 253 252 252 253 260 259 263 266 266
218 219 218 220 234 241 235 236 241 241 252 254 267 258 250 250 258 255 255 256 264 269 258 258 254 256 250 255 245 238 240 242 244 244 245 246 248 252 255 259 258 261 270 272
Height
5691 5689 5692 5699 5701 5706 5708 5713 5715 5720 5725 5717 5716 5723 5728 5727 5727 5726 5725 5723 5720 5717 5715 5713 5712 5711 5710 5707 5706 5704 5702 5699 5697 5698 5701 5703 5706 5706 5708 5710 5711 5714 5717 5720
5675 5679 5686 5688 5691 5692 5696 5702 5706 5713 5715 5709 5711 5714 5720 5723 5722 5722 5720 5717 5715 5713 5711 5710 5709 5707 5706 5705 5703 5701 5698 5695 5694 5695 5696 5699 5700 5701 5703 5706 5707 5709 5713 5716
5666 5672 5673 5674 5678 5684 5688 5691 5698 5704 5706 5702 5703 5707 5711 5718 5716 5716 5715 5714 5711 5709 5708 5707 5706 5704 5704 5702 5700 5699 5697 5693 5692 5693 5694 5695 5696 5698 5700 5703 5704 5704 5708 5710
5655 5662 5661 5667 5668 5674 5677 5684 5688 5692 5695 5693 5698 5697 5705 5710 5710 5708 5708 5708 5707 5706 5705 5705 5703 5702 5701 5700 5698 5696 5696 5694 5692 5692 5694 5694 5695 5696 5699 5701 5702 5703 5705 5708
5650 5653 5655 5658 5663 5664 5671 5671 5678 5684 5685 5686 5692 5691 5701 5703 5704 5703 5703 5702 5701 5701 5701 5702 5701 5700 5699 5698 5697 5696 5695 5694 5693 5691 5690 5692 5693 5694 5697 5698 5701 5702 5705 5709
5639 5640 5647 5653 5655 5657 5661 5664 5671 5676 5679 5678 5685 5689 5692 5698 5698 5697 5697 5696 5696 5696 5697 5697 5697 5697 5697 5696 5695 5694 5695 5694 5692 5691 5687 5687 5689 5692 5695 5698 5701 5703 5706 5709
5633 5634 5640 5643 5646 5650 5651 5657 5663 5669 5671 5673 5680 5683 5683 5692 5691 5692 5690 5692 5692 5692 5692 5693 5694 5695 5694 5694 5693 5693 5694 5693 5692 5690 5689 5687 5688 5690 5694 5696 5698 5701 5704 5706
5624 5628 5632 5639 5641 5644 5648 5651 5656 5665 5671 5675 5677 5674 5676 5684 5684 5685 5685 5687 5687 5688 5689 5690 5690 5691 5691 5691 5692 5692 5692 5693 5692 5691 5690 5690 5691 5692 5694 5696 5698 5701 5703 5706
5619 5622 5620 5629 5635 5639 5642 5643 5656 5657 5658 5660 5666 5670 5672 5679 5679 5679 5680 5681 5682 5682 5685 5686 5687 5688 5689 5688 5690 5691 5691 5691 5691 5691 5692 5691 5691 5693 5694 5696 5698 5701 5703 5706
5613 5617 5618 5621 5626 5631 5633 5644 5646 5648 5650 5654 5661 5666 5670 5671 5674 5674 5674 5675 5676 5678 5680 5682 5683 5684 5685 5686 5687 5688 5689 5690 5690 5690 5690 5691 5691 5692 5694 5694 5696 5699 5701 5703
5607 5611 5614 5617 5621 5624 5628 5631 5638 5643 5645 5650 5658 5667 5661 5664 5668 5668 5666 5670 5671 5674 5675 5677 5679 5680 5681 5683 5684 5685 5687 5687 5688 5688 5689 5690 5691 5692 5692 5694 5695 5696 5699 5700
5601 5605 5608 5611 5613 5618 5622 5627 5631 5635 5640 5644 5648 5651 5655 5658 5662 5662 5664 5664 5667 5668 5670 5672 5674 5675 5677 5679 5680 5680 5683 5684 5686 5686 5687 5688 5690 5691 5692 5692 5692 5693 5694 5696
5595 5599 5602 5605 5610 5612 5616 5620 5624 5628 5630 5633 5639 5646 5650 5651 5656 5657 5658 5658 5660 5662 5663 5665 5668 5670 5672 5674 5676 5676 5678 5680 5682 5683 5685 5686 5687 5688 5688 5689 5690 5691 5691 5692
5588 5591 5595 5599 5601 5603 5606 5610 5614 5618 5622 5626 5628 5635 5641 5645 5648 5651 5652 5653 5653 5655 5657 5659 5662 5664 5666 5668 5670 5673 5675 5676 5678 5679 5679 5680 5682 5683 5682 5683 5684 5685 5686 5687
5580 5584 5586 5590 5595 5595 5598 5601 5605 5610 5614 5615 5622 5624 5630 5634 5639 5640 5646 5648 5647 5649 5651 5653 5655 5658 5660 5663 5665 5668 5670 5672 5672 5674 5675 5675 5674 5676 5678 5678 5679 5679 5680 5681
5571 5575 5576 5579 5585 5587 5588 5592 5597 5601 5604 5607 5609 5613 5623 5626 5628 5630 5635 5637 5640 5643 5645 5647 5649 5651 5654 5656 5658 5661 5664 5666 5667 5669 5669 5670 5669 5670 5670 5671 5671 5672 5672 5673
5563 5566 5568 5571 5574 5578 5580 5585 5588 5592 5594 5598 5600 5606 5611 5615 5619 5621 5626 5630 5633 5632 5636 5639 5641 5644 5646 5650 5652 5654 5655 5657 5660 5661 5663 5664 5665 5664 5664 5664 5664 5664 5665 5665
5558 5560 5561 5564 5568 5571 5575 5576 5580 5583 5587 5590 5592 5595 5600 5607 5611 5613 5616 5619 5622 5626 5629 5631 5632 5634 5638 5640 5643 5645 5647 5650 5652 5653 5655 5657 5658 5658 5657 5657 5657 5657 5658 5659
5550 5552 5555 5558 5563 5568 5568 5570 5573 5576 5580 5581 5582 5588 5593 5597 5600 5602 5604 5607 5612 5614 5617 5620 5624 5629 5631 5632 5633 5636 5639 5641 5644 5646 5647 5648 5649 5651 5649 5649 5649 5650 5651 5651
5544 5546 5549 5552 5557 5561 5564 5565 5569 5570 5574 5574 5574 5578 5579 5586 5588 5592 5590 5596 5601 5604 5607 5611 5615 5617 5622 5624 5626 5626 5630 5631 5634 5636 5637 5639 5640 5641 5642 5642 5642 5641 5642 5642
5541 5542 5545 5547 5550 5555 5559 5559 5562 5566 5570 5568 5569 5570 5573 5578 5579 5580 5583 5587 5591 5595 5597 5600 5604 5607 5609 5614 5617 5618 5619 5620 5621 5624 5626 5629 5632 5632 5633 5634 5634 5633 5633 5634
5538 5539 5541 5542 5545 5549 5551 5554 5558 5560 5561 5559 5558 5564 5566 5569 5569 5573 5576 5577 5580 5583 5586 5589 5592 5595 5597 5601 5604 5607 5606 5610 5613 5618 5618 5620 5622 5623 5624 5625 5624 5624 5623 5623
5535 5536 5539 5540 5542 5543 5544 5547 5550 5552 5554 5555 5555 5553 5555 5555 5557 5565 5567 5570 5571 5573 5575 5577 5580 5583 5586 5588 5591 5594 5596 5598 5602 5604 5605 5607 5611 5613 5614 5614 5612 5614 5614 5613
5530 5532 5535 5536 5537 5539 5540 5543 5546 5547 5550 5551 5549 5552 5554 5554 5556 5559 5561 5563 5564 5565 5566 5568 5570 5572 5574 5576 5580 5583 5586 5589 5591 5594 5595 5598 5598 5602 5603 5600 5601 5602 5601 5601
5526 5528 5531 5531 5532 5533 5534 5537 5539 5542 5546 5548 5549 5550 5549 5550 5552 5554 5555 5556 5556 5556 5557 5558 5560 5563 5564 5566 5570 5573 5576 5580 5582 5583 5585 5586 5587 5588 5589 5589 5589 5589 5587 5586
5520 5524 5528 5529 5530 5530 5532 5535 5537 5538 5540 5541 5542 5543 5545 5546 5548 5549 5550 5550 5551 5550 5550 5550 5551 5552 5554 5556 5558 5562 5565 5568 5570 5572 5573 5574 5575 5575 5575 5574 5574 5574 5573 5572